This demonstration page uses our WeatherBlox Daily Observations layout. Learn more.

Left ArrowRight Arrow

Hourly Observations for March 13, 2017

Temp ( °F °C ) Dew Point ( °F °C ) Humidity (%) Winds ( mph kmh ) Pressure ( in mb ) Visibility ( mi km ) Precip ( " mm )
12:52 am 00:52 Cloudy with Light Rain 35 1.7 32 0 89 89 SSE 14 22 30.10 1019 10 16 0.03 0.76
1:52 am 01:52 Cloudy 35 1.7 33 0.6 93 93 SSE 14 22 30.10 1019 10 16 0.00 0.03
2:16 am 02:16 Cloudy 36 2 34 1 93 93 SSE 13 20 30.15 1021 10 16 0.00 0.00
2:33 am 02:33 Cloudy 35 1.7 33 0.6 93 93 S 10 17 30.12 1020 9 14 0.00 0.00
2:41 am 02:41 Cloudy 35 1.7 33 0.6 93 93 S 13 20 30.12 1020 9 14 0.00 0.00
2:52 am 02:52 Cloudy 35 1.7 34 1.1 96 96 S 12 19 30.09 1019 9 14 0.00 0.00
3:52 am 03:52 Cloudy 35 1.7 33 0.6 93 93 S 12 19 30.06 1018 9 14 0.00 0.00
4:52 am 04:52 Cloudy 35 1.7 33 0.6 93 93 S 12 19 30.04 1017 9 14 0.00 0.00
5:11 am 05:11 Cloudy 35 1.7 33 0.6 93 93 S 13 20 30.09 1019 8 13 0.00 0.00
5:52 am 05:52 Cloudy 36 2.2 34 1.1 93 93 S 9 15 30.03 1017 7 11 0.00 0.00
6:01 am 06:01 Cloudy 36 2.2 34 1.1 93 93 S 10 17 30.06 1018 7 11 0.00 0.00
6:31 am 06:31 Cloudy 37 2.8 35 1.7 93 93 S 10 17 30.09 1019 8 13 0.00 0.00
6:52 am 06:52 Cloudy 38 3.3 36 2.2 93 93 SSW 9 15 30.03 1017 9 14 0.00 0.00
7:52 am 07:52 Cloudy 39 3.9 37 2.8 93 93 SW 8 13 30.02 1017 8 13 0.00 0.00
8:12 am 08:12 Cloudy 39 4 37 3 93 93 W 12 19 30.06 1018 9 14 0.00 0.00
8:52 am 08:52 Cloudy 37 2.8 31 -0.6 79 79 NW 18 30 30.05 1018 10 16 0.00 0.00
9:52 am 09:52 Mostly Cloudy 34 1.1 25 -3.9 70 70 WNW 15 24 30.09 1019 10 16 0.00 0.00
10:52 am 10:52 Cloudy 30 -1.1 21 -6.1 69 69 NW 18 30 30.11 1020 10 16 0.00 0.00
11:52 am 11:52 Cloudy 30 -1.1 21 -6.1 69 69 WNW 14 22 30.14 1021 10 16 0.00 0.00
12:52 pm 12:52 Cloudy 29 -1.7 21 -6.1 72 72 NW 15 24 30.16 1021 10 16 0.00 0.00
1:52 pm 13:52 Cloudy 30 -1.1 23 -5 75 75 WNW 14 22 30.14 1021 10 16 0.00 0.00
2:18 pm 14:18 Cloudy 28 -2 23 -5 80 80 NW 15 24 30.21 1023 10 16 0.00 0.00
2:52 pm 14:52 Cloudy 30 -1.1 24 -4.4 79 79 NW 13 20 30.14 1021 10 16 0.00 0.00
3:52 pm 15:52 Cloudy 31 -0.6 25 -3.9 79 79 NW 16 26 30.15 1021 10 16 0.00 0.00
4:52 pm 16:52 Cloudy with Mist and Fog 31 -0.6 28 -2.2 89 89 NW 12 19 30.16 1021 4 6 0.00 0.00
5:16 pm 17:16 Cloudy with Mist and Fog 30 -1 28 -2 93 93 NW 12 19 30.21 1023 3 4 0.00 0.00
5:52 pm 17:52 Cloudy with Mist and Fog 32 0 30 -1.1 92 92 NW 8 13 30.17 1022 1 2 0.00 0.00
6:00 pm 18:00 Cloudy with Mist and Fog 32 0 30 -1 93 93 NW 8 13 30.24 1024 2 3 0.00 0.00
6:52 pm 18:52 Cloudy with Mist and Fog 34 1.1 32 0 92 92 NNW 14 22 30.18 1022 3 4 0.00 0.00
7:11 pm 19:11 Cloudy with Mist and Fog 34 1.1 32 0 92 92 NNW 13 20 30.24 1024 4 6 0.00 0.00
7:20 pm 19:20 Cloudy with Mist and Fog 34 1 32 0 93 93 NNW 13 20 30.24 1024 6 10 0.00 0.00
7:52 pm 19:52 Cloudy 34 1.1 31 -0.6 89 89 N 17 28 30.21 1023 7 11 0.00 0.00
8:52 pm 20:52 Cloudy 34 1.1 31 -0.6 89 89 N 13 20 30.22 1023 7 11 0.00 0.00
9:52 pm 21:52 Cloudy with Mist and Fog 32 0 30 -1.1 92 92 NNW 17 28 30.24 1024 4 6 0.00 0.00
10:52 pm 22:52 Cloudy 32 0 29 -1.7 88 88 N 12 19 30.26 1025 8 13 0.00 0.00
11:01 pm 23:01 Cloudy 32 0 29 -1.7 88 88 N 13 20 30.33 1027 7 11 0.00 0.00
11:47 pm 23:47 Cloudy with Mist and Fog 32 0 28 -2 87 87 NNW 13 20 30.33 1027 5 8 0.00 0.00
11:52 pm 23:52 Cloudy with Mist and Fog 32 0 29 -1.7 88 88 N 12 19 30.26 1025 5 8 0.00 0.00

Powered by AerisWeather